�������l�o���
Date,Time,MP-1(��Sv/h),MP-2(��Sv/h),MP-3(��Sv/h),MP-4(��Sv/h),MP-5(��Sv/h),MP-6(��Sv/h),MP-7(��Sv/h),MP-8(��Sv/h),����,����(m/s),���J
2017/09/05,00:00,0.944,1.497,0.969,1.780,1.238,0.515,0.942,0.867,��,1.2,��
2017/09/05,00:10,0.946,1.498,0.971,1.779,1.235,0.512,0.943,0.869,��쐼,1.1,��
2017/09/05,00:20,0.944,1.500,0.971,1.778,1.234,0.513,0.942,0.866,��,0.9,��
2017/09/05,00:30,0.944,1.499,0.971,1.778,1.234,0.514,0.944,0.866,��,2.0,��
2017/09/05,00:40,0.942,1.495,0.972,1.778,1.234,0.513,0.943,0.869,��,2.2,��
2017/09/05,00:50,0.943,1.498,0.974,1.777,1.236,0.513,0.942,0.866,��,1.9,��
2017/09/05,01:00,0.944,1.499,0.971,1.775,1.237,0.514,0.942,0.866,��,2.2,��
2017/09/05,01:10,0.945,1.498,0.975,1.777,1.237,0.514,0.945,0.870,��쐼,2.0,��
2017/09/05,01:20,0.944,1.498,0.971,1.777,1.235,0.512,0.942,0.867,��쐼,2.0,��
2017/09/05,01:30,0.944,1.498,0.972,1.776,1.237,0.514,0.942,0.869,�쐼,1.7,��
2017/09/05,01:40,0.943,1.498,0.973,1.777,1.236,0.514,0.943,0.869,�쐼,1.2,��
2017/09/05,01:50,0.941,1.498,0.971,1.780,1.238,0.513,0.945,0.870,��쓌,1.5,��
2017/09/05,02:00,0.944,1.499,0.973,1.777,1.236,0.512,0.942,0.868,��쓌,2.0,��
2017/09/05,02:10,0.943,1.498,0.971,1.777,1.235,0.513,0.942,0.869,��,2.0,��
2017/09/05,02:20,0.945,1.497,0.972,1.780,1.235,0.513,0.942,0.867,��,2.9,��
2017/09/05,02:30,0.943,1.500,0.970,1.776,1.236,0.514,0.941,0.868,��,3.2,��
2017/09/05,02:40,0.943,1.496,0.973,1.777,1.237,0.515,0.941,0.868,��,3.4,��
2017/09/05,02:50,0.942,1.497,0.969,1.776,1.236,0.514,0.942,0.869,��,3.5,��
2017/09/05,03:00,0.942,1.496,0.971,1.775,1.235,0.513,0.942,0.870,��,4.1,��
2017/09/05,03:10,0.943,1.499,0.973,1.776,1.235,0.512,0.942,0.866,��,4.7,��
2017/09/05,03:20,0.943,1.497,0.971,1.777,1.236,0.514,0.941,0.871,��,5.2,��
2017/09/05,03:30,0.942,1.497,0.974,1.777,1.234,0.513,0.943,0.869,��,4.7,��
2017/09/05,03:40,0.941,1.497,0.972,1.779,1.233,0.513,0.942,0.870,��,5.5,��
2017/09/05,03:50,0.942,1.498,0.971,1.778,1.236,0.513,0.943,0.869,��,4.3,��
2017/09/05,04:00,0.942,1.499,0.973,1.780,1.236,0.512,0.944,0.868,��,3.8,��
2017/09/05,04:10,0.942,1.495,0.972,1.778,1.235,0.515,0.942,0.868,��쐼,3.5,��
2017/09/05,04:20,0.942,1.500,0.970,1.777,1.235,0.512,0.940,0.868,��,2.0,��
2017/09/05,04:30,0.941,1.498,0.973,1.779,1.235,0.513,0.942,0.870,��쓌,1.4,��
2017/09/05,04:40,0.941,1.496,0.970,1.777,1.236,0.512,0.944,0.869,�쓌,1.2,��
2017/09/05,04:50,0.942,1.497,0.973,1.775,1.234,0.511,0.942,0.869,�쓌,1.2,��
2017/09/05,05:00,0.943,1.496,0.971,1.779,1.233,0.512,0.942,0.867,��쓌,1.1,��
2017/09/05,05:10,0.943,1.497,0.969,1.777,1.232,0.515,0.944,0.869,��쓌,0.6,��
2017/09/05,05:20,0.941,1.497,0.972,1.778,1.234,0.512,0.941,0.869,-,CALM,��
2017/09/05,05:30,0.943,1.499,0.973,1.777,1.236,0.513,0.942,0.869,�k�k��,1.1,��
2017/09/05,05:40,0.940,1.497,0.972,1.779,1.233,0.511,0.943,0.868,�k��,2.0,��
2017/09/05,05:50,0.943,1.496,0.971,1.778,1.235,0.513,0.940,0.867,�k��,2.9,��
2017/09/05,06:00,0.943,1.497,0.971,1.777,1.233,0.512,0.944,0.868,�k�k��,3.0,��
2017/09/05,06:10,0.941,1.497,0.972,1.779,1.234,0.513,0.945,0.869,�k�k��,3.5,��
2017/09/05,06:20,0.944,1.498,0.972,1.776,1.236,0.513,0.944,0.868,�k�k��,3.8,��
2017/09/05,06:30,0.938,1.497,0.972,1.778,1.235,0.513,0.944,0.869,�k��,2.9,��
2017/09/05,06:40,0.942,1.500,0.972,1.779,1.233,0.512,0.943,0.869,�k�k��,3.8,��
2017/09/05,06:50,0.943,1.501,0.974,1.783,1.236,0.513,0.944,0.869,�k�k��,3.8,��
2017/09/05,07:00,0.943,1.499,0.975,1.777,1.235,0.514,0.942,0.869,�k�k��,4.1,��
2017/09/05,07:10,0.946,1.497,0.975,1.780,1.233,0.514,0.942,0.869,�k�k��,3.3,��
2017/09/05,07:20,0.944,1.500,0.974,1.781,1.236,0.512,0.943,0.869,�k,3.9,��
2017/09/05,07:30,0.943,1.501,0.973,1.779,1.237,0.513,0.941,0.869,�k�k��,3.7,��
2017/09/05,07:40,0.946,1.500,0.974,1.779,1.238,0.513,0.943,0.870,�k�k��,4.5,��
2017/09/05,07:50,0.944,1.500,0.975,1.780,1.237,0.512,0.941,0.868,�k�k��,4.8,��
2017/09/05,08:00,0.944,1.500,0.975,1.783,1.239,0.511,0.942,0.871,�k,4.6,��
2017/09/05,08:10,0.944,1.495,0.972,1.783,1.234,0.511,0.941,0.867,�k�k��,3.6,��
2017/09/05,08:20,0.944,1.493,0.973,1.783,1.233,0.510,0.942,0.868,�k,2.8,��
2017/09/05,08:30,0.944,1.494,0.973,1.784,1.232,0.512,0.941,0.869,�k,2.6,��
2017/09/05,08:40,0.942,1.492,0.973,1.784,1.232,0.512,0.944,0.867,�k�k��,2.6,��
2017/09/05,08:50,0.942,1.494,0.972,1.781,1.229,0.512,0.943,0.867,�k�k��,2.5,��
2017/09/05,09:00,0.943,1.495,0.970,1.783,1.232,0.512,0.942,0.869,�k,2.6,��
2017/09/05,09:10,0.943,1.495,0.974,1.783,1.235,0.511,0.943,0.867,�k�k��,2.8,��
2017/09/05,09:20,0.942,1.496,0.974,1.783,1.234,0.512,0.943,0.867,�k,2.8,��
2017/09/05,09:30,0.943,1.495,0.970,1.780,1.232,0.511,0.942,0.866,�k��,1.9,��
2017/09/05,09:40,0.943,1.495,0.972,1.781,1.236,0.511,0.944,0.867,�k��,1.9,��
2017/09/05,09:50,0.944,1.495,0.972,1.782,1.235,0.513,0.943,0.869,�k��,2.0,��
2017/09/05,10:00,0.944,1.497,0.973,1.782,1.236,0.514,0.943,0.867,�k��,2.5,��
2017/09/05,10:10,0.946,1.494,0.973,1.783,1.234,0.512,0.946,0.864,�k��,2.8,��
2017/09/05,10:20,0.943,1.496,0.974,1.782,1.236,0.512,0.945,0.867,�k�k��,3.0,��
2017/09/05,10:30,0.947,1.500,0.975,1.783,1.238,0.511,0.942,0.867,���k��,2.8,��
2017/09/05,10:40,0.947,1.500,0.974,1.785,1.238,0.513,0.944,0.867,�k��,2.9,��
2017/09/05,10:50,0.949,1.498,0.973,1.784,1.236,0.512,0.944,0.869,���k��,3.3,��
2017/09/05,11:00,0.946,1.501,0.973,1.783,1.237,0.513,0.945,0.868,���k��,3.6,��
2017/09/05,11:10,0.948,1.498,0.977,1.787,1.241,0.513,0.944,0.868,�k��,2.8,��
2017/09/05,11:20,0.949,1.500,0.974,1.786,1.239,0.511,0.945,0.868,���k��,3.1,��
2017/09/05,11:30,0.947,1.501,0.976,1.780,1.241,0.513,0.944,0.867,���k��,3.3,��
2017/09/05,11:40,0.950,1.503,0.975,1.785,1.241,0.513,0.944,0.868,���k��,2.5,��
2017/09/05,11:50,0.950,1.502,0.975,1.783,1.242,0.512,0.944,0.867,���쓌,2.8,��
2017/09/05,12:00,0.950,1.503,0.976,1.782,1.242,0.513,0.943,0.868,��,2.5,��
2017/09/05,12:10,0.950,1.503,0.977,1.782,1.243,0.513,0.944,0.869,���쓌,2.5,��
2017/09/05,12:20,0.951,1.504,0.978,1.784,1.243,0.513,0.945,0.870,��,2.3,��
2017/09/05,12:30,0.949,1.508,0.978,1.783,1.244,0.514,0.943,0.869,���쓌,2.2,��
2017/09/05,12:40,0.951,1.504,0.978,1.785,1.243,0.514,0.946,0.867,���쓌,3.1,��
2017/09/05,12:50,0.951,1.509,0.979,1.785,1.240,0.513,0.945,0.871,�쓌,3.5,��
2017/09/05,13:00,0.952,1.507,0.978,1.784,1.245,0.513,0.944,0.870,���쓌,3.3,��
2017/09/05,13:10,0.952,1.501,0.976,1.783,1.243,0.515,0.946,0.868,�쓌,2.3,��
2017/09/05,13:20,0.951,1.504,0.977,1.781,1.243,0.514,0.944,0.869,���쓌,3.4,��
2017/09/05,13:30,0.952,1.505,0.976,1.782,1.244,0.514,0.944,0.869,���쓌,3.3,��
2017/09/05,13:40,0.950,1.505,0.979,1.784,1.244,0.513,0.946,0.871,���쓌,2.9,��
2017/09/05,13:50,0.949,1.506,0.979,1.783,1.245,0.514,0.944,0.870,�쓌,2.6,��
2017/09/05,14:00,0.951,1.506,0.980,1.783,1.245,0.513,0.944,0.870,��,2.6,��
2017/09/05,14:10,0.951,1.504,0.978,1.784,1.244,0.513,0.946,0.869,�쓌,2.3,��
2017/09/05,14:20,0.953,1.506,0.974,1.782,1.244,0.516,0.945,0.869,���쓌,2.2,��
2017/09/05,14:30,0.951,1.506,0.976,1.783,1.245,0.514,0.946,0.869,��,2.0,��
2017/09/05,14:40,0.954,1.506,0.977,1.787,1.244,0.515,0.946,0.869,���쓌,1.7,��
2017/09/05,14:50,0.953,1.506,0.977,1.784,1.243,0.515,0.946,0.867,��쓌,2.3,��
2017/09/05,15:00,0.950,1.507,0.978,1.790,1.243,0.515,0.946,0.870,��쓌,2.5,��
2017/09/05,15:10,0.953,1.507,0.979,1.786,1.246,0.514,0.945,0.870,���쓌,2.5,��
2017/09/05,15:20,0.952,1.508,0.978,1.787,1.246,0.515,0.945,0.869,�쓌,2.0,��
2017/09/05,15:30,0.951,1.507,0.977,1.787,1.246,0.515,0.943,0.869,�쓌,1.7,��
2017/09/05,15:40,0.953,1.507,0.978,1.790,1.248,0.515,0.945,0.870,�쓌,1.2,��
2017/09/05,15:50,0.951,1.509,0.979,1.789,1.245,0.517,0.946,0.870,�쓌,1.7,��
2017/09/05,16:00,0.951,1.506,0.978,1.790,1.244,0.516,0.944,0.869,�쓌,1.7,��
2017/09/05,16:10,0.951,1.506,0.979,1.788,1.242,0.516,0.945,0.869,�쓌,1.2,��
2017/09/05,16:20,0.950,1.508,0.978,1.789,1.241,0.515,0.945,0.869,���쓌,1.5,��
2017/09/05,16:30,0.951,1.509,0.979,1.787,1.244,0.514,0.945,0.869,���쓌,1.5,��
2017/09/05,16:40,0.950,1.510,0.977,1.790,1.243,0.515,0.945,0.869,���쓌,1.2,��
2017/09/05,16:50,0.952,1.511,0.978,1.792,1.243,0.515,0.944,0.867,��,0.9,��
2017/09/05,17:00,0.952,1.511,0.978,1.791,1.245,0.515,0.944,0.871,�k��,1.2,��
2017/09/05,17:10,0.953,1.511,0.980,1.790,1.244,0.516,0.944,0.870,�k,1.7,��
2017/09/05,17:20,0.951,1.514,0.979,1.791,1.240,0.515,0.944,0.871,���k��,1.5,��
2017/09/05,17:30,0.950,1.514,0.980,1.791,1.245,0.516,0.943,0.869,�k�k��,2.2,��
2017/09/05,17:40,0.952,1.516,0.983,1.790,1.245,0.515,0.944,0.871,�k��,2.3,��
2017/09/05,17:50,0.951,1.513,0.982,1.790,1.245,0.517,0.944,0.870,���k��,1.7,��
2017/09/05,18:00,0.952,1.512,0.982,1.789,1.247,0.516,0.946,0.871,�k��,2.0,��
2017/09/05,18:10,0.952,1.513,0.982,1.790,1.244,0.517,0.943,0.870,���k��,2.0,��
2017/09/05,18:20,0.950,1.514,0.982,1.789,1.244,0.517,0.945,0.871,���k��,2.0,��
2017/09/05,18:30,0.952,1.512,0.981,1.789,1.245,0.517,0.945,0.872,���k��,1.7,��
2017/09/05,18:40,0.950,1.512,0.982,1.789,1.244,0.517,0.945,0.871,���k��,2.0,��
2017/09/05,18:50,0.951,1.515,0.981,1.788,1.248,0.517,0.945,0.871,�k��,2.0,��
2017/09/05,19:00,0.952,1.512,0.983,1.793,1.246,0.518,0.946,0.873,�k��,1.7,��
2017/09/05,19:10,0.951,1.512,0.982,1.789,1.246,0.518,0.945,0.874,�k��,1.7,��
2017/09/05,19:20,0.951,1.512,0.982,1.789,1.247,0.519,0.946,0.872,���k��,1.2,��
2017/09/05,19:30,0.950,1.513,0.982,1.786,1.247,0.516,0.946,0.870,���k��,1.4,��
2017/09/05,19:40,0.954,1.512,0.982,1.790,1.243,0.516,0.945,0.872,���k��,1.2,��
2017/09/05,19:50,0.954,1.513,0.981,1.791,1.247,0.516,0.945,0.871,��,0.6,�L
2017/09/05,20:00,0.951,1.515,0.981,1.790,1.246,0.515,0.946,0.873,���k��,1.4,�L
2017/09/05,20:10,0.950,1.515,0.981,1.789,1.245,0.516,0.944,0.874,�k��,1.1,�L
2017/09/05,20:20,0.954,1.511,0.981,1.791,1.247,0.516,0.946,0.870,�k,0.9,��
2017/09/05,20:30,0.952,1.513,0.980,1.791,1.245,0.515,0.945,0.873,�k�k��,0.9,��
2017/09/05,20:40,0.953,1.512,0.981,1.788,1.246,0.515,0.943,0.871,���k��,0.8,��
2017/09/05,20:50,0.955,1.510,0.982,1.792,1.245,0.517,0.944,0.872,�k�k��,1.2,��
2017/09/05,21:00,0.954,1.514,0.983,1.787,1.247,0.515,0.943,0.870,�k��,2.0,��
2017/09/05,21:10,0.954,1.512,0.980,1.787,1.246,0.515,0.947,0.871,�k�k��,1.7,��
2017/09/05,21:20,0.952,1.513,0.983,1.793,1.248,0.517,0.946,0.873,�k,0.6,��
2017/09/05,21:30,0.954,1.510,0.983,1.789,1.247,0.516,0.945,0.871,�k�k��,0.8,��
2017/09/05,21:40,0.954,1.514,0.981,1.788,1.247,0.517,0.945,0.872,�k,1.1,��
2017/09/05,21:50,0.954,1.513,0.981,1.791,1.246,0.516,0.946,0.872,�k,0.8,��
2017/09/05,22:00,0.955,1.512,0.981,1.790,1.247,0.516,0.945,0.873,���k��,1.4,��
2017/09/05,22:10,0.954,1.512,0.981,1.789,1.248,0.516,0.944,0.873,���k��,2.5,��
2017/09/05,22:20,0.953,1.513,0.983,1.790,1.247,0.515,0.946,0.872,���k��,3.0,��
2017/09/05,22:30,0.953,1.511,0.981,1.789,1.246,0.515,0.946,0.873,���k��,2.5,��
2017/09/05,22:40,0.951,1.510,0.983,1.790,1.247,0.514,0.946,0.872,���k��,2.0,��
2017/09/05,22:50,0.955,1.512,0.981,1.790,1.247,0.517,0.944,0.870,���k��,3.2,��
2017/09/05,23:00,0.954,1.513,0.983,1.789,1.244,0.516,0.945,0.872,�k��,5.3,��
2017/09/05,23:10,0.952,1.512,0.982,1.789,1.246,0.516,0.946,0.872,�k��,4.8,��
2017/09/05,23:20,0.954,1.511,0.982,1.789,1.246,0.515,0.943,0.872,�k��,3.3,��
2017/09/05,23:30,0.954,1.510,0.981,1.792,1.246,0.517,0.945,0.874,�k��,2.6,��
2017/09/05,23:40,0.953,1.512,0.980,1.792,1.247,0.516,0.946,0.871,�k��,2.5,��
2017/09/05,23:50,0.953,1.511,0.980,1.790,1.244,0.516,0.944,0.872,�k��,3.1,��
